| time (UTC) | temp F | wind direction | speed knots | gust knots | rain 1hr in | rain 24hr in | rain mn in | humidity % | barometer mb |
| 20260905123616 | 62 | 0 | 0.0 | 0.0 | 0.00 | 0.00 | 0.00 | 50 | 1017.6 |
| 20260905122737 | 63 | 84 | 0.0 | 0.9 | 0.00 | 0.00 | 0.00 | 49 | 1017.6 |
| 20260905121816 | 63 | 84 | 0.0 | 1.7 | 0.00 | 0.00 | 0.00 | 48 | 1017.6 |
| 20260905120917 | 64 | 84 | 0.0 | 0.9 | 0.00 | 0.00 | 0.00 | 46 | 1017.6 |
| 20260905005411 | 86 | 205 | 3.5 | 9.6 | 0.00 | 0.00 | 0.00 | 20 | 1016.5 |
| 20260905004511 | 87 | 205 | 2.6 | 10.4 | 0.00 | 0.00 | 0.00 | 19 | 1016.5 |
| 20260905003611 | 87 | 220 | 1.7 | 7.8 | 0.00 | 0.00 | 0.00 | 19 | 1016.5 |
| 20260905002711 | 88 | 206 | 1.7 | 7.0 | 0.00 | 0.00 | 0.00 | 19 | 1016.5 |
| 20260905001811 | 88 | 213 | 2.6 | 10.4 | 0.00 | 0.00 | 0.00 | 19 | 1016.5 |
| 20260905000911 | 90 | 273 | 0.0 | 1.7 | 0.00 | 0.00 | 0.00 | 19 | 1016.5 |
| 20260905000011 | 90 | 239 | 0.0 | 4.3 | 0.00 | 0.00 | 0.00 | 18 | 1016.5 |
| 20260904235411 | 90 | 248 | 0.9 | 7.8 | 0.00 | 0.00 | 0.00 | 18 | 1016.5 |
| 20260904234511 | 90 | 203 | 1.7 | 10.4 | 0.00 | 0.00 | 0.00 | 19 | 1016.5 |
| 20260904233611 | 90 | 211 | 0.9 | 10.4 | 0.00 | 0.00 | 0.00 | 18 | 1016.5 |
| 20260904232711 | 90 | 157 | 1.7 | 13.0 | 0.00 | 0.00 | 0.00 | 19 | 1016.5 |
| 20260904231811 | 89 | 179 | 2.6 | 9.6 | 0.00 | 0.00 | 0.00 | 20 | 1016.5 |
| 20260904230911 | 89 | 193 | 3.5 | 9.6 | 0.00 | 0.00 | 0.00 | 20 | 1016.5 |
| 20260904230011 | 90 | 185 | 2.6 | 8.7 | 0.00 | 0.00 | 0.00 | 20 | 1016.5 |
| 20260904225411 | 90 | 178 | 1.7 | 8.7 | 0.00 | 0.00 | 0.00 | 20 | 1016.5 |
| 20260904224511 | 90 | 175 | 3.5 | 10.4 | 0.00 | 0.00 | 0.00 | 20 | 1016.5 |
| 20260904223611 | 89 | 151 | 2.6 | 10.4 | 0.00 | 0.00 | 0.00 | 20 | 1016.5 |
| 20260904222711 | 89 | 107 | 1.7 | 7.8 | 0.00 | 0.00 | 0.00 | 22 | 1016.5 |
| 20260904221811 | 89 | 181 | 2.6 | 8.7 | 0.00 | 0.00 | 0.00 | 20 | 1016.5 |
| 20260904220911 | 89 | 184 | 0.0 | 4.3 | 0.00 | 0.00 | 0.00 | 24 | 1016.5 |
| 20260904220011 | 89 | 58 | 0.9 | 5.2 | 0.00 | 0.00 | 0.00 | 26 | 1016.5 |
| 20260904215411 | 89 | 60 | 1.7 | 5.2 | 0.00 | 0.00 | 0.00 | 27 | 1016.5 |
| 20260904214511 | 86 | 61 | 0.9 | 5.2 | 0.00 | 0.00 | 0.00 | 27 | 1016.5 |
| 20260904213632 | 86 | 0 | 0.0 | 0.0 | 0.00 | 0.00 | 0.00 | 28 | 1016.5 |
| 20260904212711 | 86 | 0 | 0.0 | 0.9 | 0.00 | 0.00 | 0.00 | 28 | 1016.5 |
| 20260904211811 | 86 | 0 | 0.0 | 0.0 | 0.00 | 0.00 | 0.00 | 28 | 1016.5 |
| 20260904210911 | 85 | 61 | 0.0 | 3.5 | 0.00 | 0.00 | 0.00 | 30 | 1016.5 |
| 20260904210011 | 85 | 61 | 0.9 | 4.3 | 0.00 | 0.00 | 0.00 | 29 | 1016.5 |
| 20260904205411 | 86 | 61 | 0.0 | 3.5 | 0.00 | 0.00 | 0.00 | 29 | 1016.5 |
| 20260904204532 | 86 | 56 | 0.9 | 7.0 | 0.00 | 0.00 | 0.00 | 29 | 1016.5 |
| 20260904203632 | 86 | 27 | 0.9 | 3.5 | 0.00 | 0.00 | 0.00 | 29 | 1016.5 |
| 20260904202711 | 86 | 24 | 0.9 | 7.0 | 0.00 | 0.00 | 0.00 | 28 | 1016.5 |
| 20260904201811 | 87 | 27 | 0.9 | 5.2 | 0.00 | 0.00 | 0.00 | 27 | 1016.5 |
| 20260904200932 | 86 | 26 | 0.9 | 5.2 | 0.00 | 0.00 | 0.00 | 29 | 1016.5 |
| 20260904200032 | 85 | 26 | 0.9 | 5.2 | 0.00 | 0.00 | 0.00 | 30 | 1016.5 |
| 20260904195411 | 85 | 28 | 1.7 | 7.0 | 0.00 | 0.00 | 0.00 | 28 | 1016.5 |
| 20260904194532 | 85 | 46 | 1.7 | 7.0 | 0.00 | 0.00 | 0.00 | 29 | 1016.5 |
| 20260904193632 | 85 | 24 | 0.9 | 4.3 | 0.00 | 0.00 | 0.00 | 29 | 1016.5 |
| 20260904192711 | 84 | 319 | 2.6 | 8.7 | 0.00 | 0.00 | 0.00 | 28 | 1016.5 |
| 20260904191811 | 84 | 307 | 1.7 | 8.7 | 0.00 | 0.00 | 0.00 | 29 | 1016.5 |
| 20260904190932 | 84 | 322 | 0.9 | 5.2 | 0.00 | 0.00 | 0.00 | 29 | 1016.5 |
| 20260904190011 | 85 | 15 | 0.9 | 8.7 | 0.00 | 0.00 | 0.00 | 28 | 1016.5 |
| 20260904185411 | 85 | 10 | 2.6 | 8.7 | 0.00 | 0.00 | 0.00 | 29 | 1016.5 |
| 20260904184511 | 85 | 343 | 0.9 | 4.3 | 0.00 | 0.00 | 0.00 | 29 | 1016.5 |
| 20260904183611 | 86 | 3 | 0.9 | 4.3 | 0.00 | 0.00 | 0.00 | 27 | 1016.5 |
| 20260904182711 | 86 | 360 | 0.9 | 4.3 | 0.00 | 0.00 | 0.00 | 26 | 1016.5 |
| 20260904181811 | 86 | 351 | 1.7 | 6.1 | 0.00 | 0.00 | 0.00 | 27 | 1016.5 |
| 20260904180932 | 87 | 2 | 1.7 | 5.2 | 0.00 | 0.00 | 0.00 | 26 | 1016.5 |
| 20260904180011 | 86 | 267 | 1.7 | 8.7 | 0.00 | 0.00 | 0.00 | 27 | 1016.5 |
| 20260904175411 | 85 | 183 | 0.9 | 6.1 | 0.00 | 0.00 | 0.00 | 28 | 1016.5 |
| 20260904174532 | 83 | 180 | 0.0 | 3.5 | 0.00 | 0.00 | 0.00 | 29 | 1016.5 |
| 20260904173611 | 82 | 181 | 0.9 | 4.3 | 0.00 | 0.00 | 0.00 | 28 | 1016.5 |
| 20260904172711 | 83 | 185 | 3.5 | 8.7 | 0.00 | 0.00 | 0.00 | 28 | 1016.5 |
| 20260904171811 | 84 | 77 | 3.5 | 11.3 | 0.00 | 0.00 | 0.00 | 28 | 1016.5 |
| 20260904170911 | 84 | 69 | 4.3 | 8.7 | 0.00 | 0.00 | 0.00 | 30 | 1016.5 |
| 20260904170011 | 83 | 70 | 4.3 | 9.6 | 0.00 | 0.00 | 0.00 | 30 | 1016.5 |
| 20260904165411 | 83 | 66 | 3.5 | 9.6 | 0.00 | 0.00 | 0.00 | 30 | 1016.5 |
| 20260904164532 | 82 | 67 | 5.2 | 9.6 | 0.00 | 0.00 | 0.00 | 31 | 1016.5 |
| 20260904163611 | 82 | 67 | 4.3 | 13.0 | 0.00 | 0.00 | 0.00 | 31 | 1016.5 |
| 20260904162711 | 82 | 62 | 4.3 | 9.6 | 0.00 | 0.00 | 0.00 | 31 | 1016.5 |
| 20260904161811 | 82 | 63 | 4.3 | 10.4 | 0.00 | 0.00 | 0.00 | 33 | 1016.5 |
| 20260904160911 | 82 | 65 | 4.3 | 9.6 | 0.00 | 0.00 | 0.00 | 33 | 1016.5 |
| 20260904160011 | 81 | 59 | 2.6 | 8.7 | 0.00 | 0.00 | 0.00 | 33 | 1016.5 |
| 20260904155432 | 81 | 69 | 2.6 | 7.8 | 0.00 | 0.00 | 0.00 | 34 | 1016.5 |
| 20260904154511 | 80 | 70 | 3.5 | 9.6 | 0.00 | 0.00 | 0.00 | 33 | 1016.5 |
| 20260904153611 | 80 | 68 | 4.3 | 7.8 | 0.00 | 0.00 | 0.00 | 35 | 1016.5 |
| 20260904152711 | 80 | 72 | 3.5 | 7.8 | 0.00 | 0.00 | 0.00 | 35 | 1016.5 |
| 20260904151832 | 79 | 74 | 2.6 | 6.1 | 0.00 | 0.00 | 0.00 | 35 | 1016.5 |
| 20260904150932 | 79 | 76 | 1.7 | 6.1 | 0.00 | 0.00 | 0.00 | 37 | 1016.5 |
| 20260904150011 | 79 | 141 | 0.0 | 3.5 | 0.00 | 0.00 | 0.00 | 36 | 1016.5 |
| 20260904145411 | 79 | 141 | 0.0 | 3.5 | 0.00 | 0.00 | 0.00 | 36 | 1016.5 |
| 20260904144532 | 78 | 0 | 0.0 | 0.9 | 0.00 | 0.00 | 0.00 | 36 | 1016.5 |
| 20260904143611 | 77 | 208 | 0.0 | 4.3 | 0.00 | 0.00 | 0.00 | 35 | 1016.5 |
| 20260904142711 | 76 | 181 | 0.0 | 4.3 | 0.00 | 0.00 | 0.00 | 34 | 1016.5 |
| 20260904141832 | 76 | 186 | 0.9 | 5.2 | 0.00 | 0.00 | 0.00 | 35 | 1016.5 |
| 20260904140932 | 75 | 199 | 0.9 | 6.1 | 0.00 | 0.00 | 0.00 | 35 | 1016.5 |
| 20260904140011 | 74 | 190 | 2.6 | 7.0 | 0.00 | 0.00 | 0.00 | 36 | 1016.5 |
| 20260904135411 | 73 | 199 | 2.6 | 8.7 | 0.00 | 0.00 | 0.00 | 36 | 1016.5 |
| 20260904134511 | 72 | 195 | 3.5 | 8.7 | 0.00 | 0.00 | 0.00 | 36 | 1016.5 |
| 20260904133632 | 72 | 193 | 3.5 | 7.0 | 0.00 | 0.00 | 0.00 | 37 | 1016.5 |
| 20260904132732 | 71 | 204 | 1.7 | 7.8 | 0.00 | 0.00 | 0.00 | 37 | 1016.5 |
| 20260904131811 | 71 | 219 | 0.9 | 6.1 | 0.00 | 0.00 | 0.00 | 37 | 1016.5 |
| 20260904130911 | 71 | 210 | 2.6 | 9.6 | 0.00 | 0.00 | 0.00 | 37 | 1016.5 |
| 20260904130011 | 72 | 208 | 2.6 | 9.6 | 0.00 | 0.00 | 0.00 | 37 | 1016.5 |
| 20260904125432 | 72 | 217 | 1.7 | 7.0 | 0.00 | 0.00 | 0.00 | 36 | 1016.5 |
| 20260904124511 | 73 | 206 | 1.7 | 7.0 | 0.00 | 0.00 | 0.00 | 35 | 1016.5 |